Date,TemperatureHighF,TemperatureAvgF,TemperatureLowF,DewpointHighF,DewpointAvgF,DewpointLowF,HumidityHigh,HumidityAvg,HumidityLow,PressureMaxIn,PressureMinIn,WindSpeedMaxMPH,WindSpeedAvgMPH,GustSpeedMaxMPH,PrecipitationSumIn
2013-2-13,43.0,37.0,32.0,33.0,30.3,27.0,95,78,60,29.42,29.21,1,0,7,0.11
2013-2-14,44.0,35.1,30.0,31.0,29.3,26.0,96,81,48,29.54,29.31,3,1,7,0.18
2013-2-20,24.0,23.4,23.0,10.0,9.8,9.0,58,56,54,29.68,29.66,3,2,8,0.00
2013-2-21,36.0,27.2,21.0,18.0,13.6,11.0,67,56,46,29.86,29.64,7,4,18,0.00
2013-2-22,32.0,29.1,26.0,28.0,21.7,16.0,92,74,62,29.93,29.76,1,0,8,0.00
2013-2-23,45.0,37.7,30.0,43.0,36.5,28.0,96,95,93,29.76,29.36,2,0,5,0.05
2013-2-24,48.0,40.4,30.0,39.0,31.2,20.0,96,72,44,29.64,29.34,8,4,30,0.01
2013-2-25,46.0,33.0,27.0,26.0,22.6,20.0,84,67,42,29.76,29.64,2,0,7,0.00
2013-2-26,41.0,35.6,25.0,40.0,33.1,22.0,95,91,85,29.77,29.18,4,2,19,0.81
2013-2-27,54.0,46.7,41.0,42.0,37.3,33.0,96,72,49,29.24,29.06,6,2,18,0.74
2013-2-28,42.0,39.8,38.0,36.0,31.4,27.0,90,73,57,29.26,29.18,5,2,12,0.03
2013-3-1,41.0,37.8,34.0,31.0,27.7,23.0,76,67,57,29.41,29.24,3,2,15,0.00
2013-3-2,35.0,31.0,27.0,24.0,21.8,20.0,83,69,59,29.40,29.34,5,2,14,0.00
2013-3-3,37.0,31.4,28.0,21.0,19.9,19.0,72,63,52,29.43,29.33,7,4,18,0.00
2013-3-4,40.0,32.4,26.0,21.0,18.1,15.0,64,56,43,29.56,29.43,7,4,19,0.00
2013-3-5,49.0,37.7,27.0,30.0,22.3,16.0,73,56,31,29.59,29.39,2,1,10,0.00
2013-3-6,38.0,35.5,32.0,34.0,31.4,27.0,94,86,66,29.52,29.22,5,2,18,0.91
2013-3-7,47.0,38.5,34.0,30.0,27.2,24.0,80,65,44,29.68,29.52,7,2,18,0.06
2013-3-8,47.0,41.7,34.0,28.0,26.6,22.0,74,55,46,29.80,29.66,9,5,23,0.00
2013-3-9,62.0,41.9,32.0,26.0,23.3,20.0,73,51,20,29.84,29.78,4,1,12,0.00
2013-3-10,61.0,43.9,28.0,31.0,22.8,14.0,84,50,19,29.84,29.78,3,1,11,0.00
2013-3-11,56.0,49.5,41.0,49.0,43.9,37.0,91,81,70,29.80,29.52,3,1,13,0.00
2013-3-12,57.0,50.0,41.0,53.0,42.6,30.0,96,76,60,29.53,29.28,7,3,16,0.93
2013-3-13,40.0,36.3,33.0,30.0,29.3,20.0,84,76,67,29.58,29.49,5,1,11,0.86
2013-3-14,34.0,32.3,30.0,21.0,18.4,15.0,61,57,46,29.61,29.57,6,3,19,0.00
2013-3-15,54.0,44.5,32.0,32.0,24.6,15.0,61,46,33,29.61,29.32,4,1,13,0.00
2013-3-16,45.0,39.0,36.0,34.0,32.3,31.0,84,77,60,29.48,29.33,1,0,5,0.00
2013-3-17,41.0,36.1,32.0,32.0,26.9,22.0,91,70,53,29.81,29.47,2,0,5,0.00
2013-3-18,35.0,34.7,34.0,34.0,26.6,20.0,95,74,56,29.84,29.43,1,0,6,0.45
2013-3-19,57.0,43.2,35.0,34.0,25.7,11.0,96,59,22,29.44,29.26,8,3,21,0.29
2013-3-20,49.0,40.0,31.0,23.0,18.7,15.0,65,44,25,29.50,29.32,6,1,14,0.00
2013-3-21,40.0,32.0,27.0,26.0,16.3,8.0,80,53,38,29.41,29.33,6,3,16,0.00
2013-3-22,30.0,30.0,30.0,19.0,19.0,19.0,63,62,62,29.53,29.52,0,0,1,0.00
2013-3-23,37.0,27.0,23.0,23.0,19.4,18.0,83,73,56,29.54,29.52,1,0,8,0.00
2013-3-24,40.0,34.1,26.0,31.0,23.4,20.0,84,66,52,29.54,29.21,1,0,6,0.00
2013-3-25,35.0,33.2,32.0,32.0,30.5,29.0,95,89,83,29.23,29.12,1,0,5,0.40
2013-3-26,49.0,40.2,30.0,32.0,29.5,23.0,96,69,36,29.51,29.23,5,2,15,0.21
2013-3-27,47.0,41.5,39.0,30.0,28.1,25.0,69,59,47,29.64,29.51,7,3,19,0.13
2013-3-28,48.0,40.6,35.0,30.0,28.4,25.0,77,63,42,29.75,29.61,6,2,14,0.00
2013-3-29,47.0,41.8,40.0,30.0,28.4,26.0,65,59,48,29.76,29.72,2,1,6,0.00
2013-3-30,58.0,43.4,30.0,31.0,25.8,20.0,85,55,23,29.73,29.65,3,0,10,0.00
2013-3-31,54.0,46.5,39.0,49.0,38.8,-99.9,95,79,55,29.67,29.29,2,0,7,0.05
2013-4-1,61.0,46.1,37.0,44.0,33.2,18.0,97,64,42,29.52,29.28,8,3,22,0.01
2013-4-2,45.0,37.0,27.0,20.0,16.2,14.0,73,44,30,29.71,29.52,6,2,18,0.01
2013-4-3,48.0,35.3,22.0,20.0,16.2,10.0,80,49,23,29.91,29.71,8,3,25,0.00
2013-4-4,48.0,35.4,22.0,28.0,19.7,15.0,78,55,29,29.93,29.64,2,0,9,0.00
2013-4-5,64.0,48.5,37.0,35.0,29.1,20.0,93,55,26,29.64,29.36,6,2,20,0.12
2013-4-6,56.0,46.8,37.0,26.0,20.6,18.0,51,36,24,29.84,29.57,3,1,10,0.01
2013-4-7,69.0,53.7,40.0,44.0,36.0,27.0,69,53,33,29.83,29.53,3,1,11,0.00
2013-4-8,78.0,62.9,50.0,53.0,46.5,41.0,74,56,34,29.57,29.51,3,0,12,0.00
2013-4-9,85.0,72.5,60.0,57.0,52.7,50.0,71,52,33,29.54,29.47,4,0,9,0.00
2013-4-10,90.0,73.9,60.0,57.0,53.9,51.0,75,52,32,29.47,29.32,2,0,8,0.00
2013-4-11,80.0,64.3,54.0,62.0,56.0,50.0,90,76,51,29.46,29.33,3,1,14,0.00
2013-4-12,64.0,54.0,50.0,59.0,51.8,48.0,95,92,85,29.40,29.16,3,1,10,0.65
2013-4-13,68.0,52.7,41.0,48.0,42.8,38.0,95,73,35,29.49,29.32,4,1,11,0.06
2013-4-14,59.0,48.9,40.0,42.0,39.1,36.0,88,71,43,29.68,29.52,1,0,6,0.00
2013-4-15,57.0,54.1,53.0,48.0,46.0,42.0,80,74,64,29.85,29.68,1,0,6,0.01
2013-4-16,69.0,65.2,63.0,58.0,56.9,56.0,79,74,67,29.71,29.67,2,1,10,0.00
2013-4-17,73.0,67.5,60.0,62.0,57.4,54.0,84,71,59,29.80,29.73,3,1,12,0.00
2013-4-18,75.0,63.7,56.0,64.0,57.8,52.0,96,82,62,29.79,29.57,3,1,15,0.10
2013-4-19,74.0,60.9,52.0,66.0,57.8,49.0,94,89,74,29.57,29.16,4,1,12,0.96
2013-4-20,55.0,49.4,46.0,50.0,36.9,26.0,93,65,35,29.88,29.31,4,1,10,1.03
2013-4-21,53.0,43.7,39.0,34.0,27.7,24.0,69,53,38,30.12,29.88,3,1,9,0.00
2013-4-22,58.0,47.2,33.0,38.0,34.6,31.0,92,63,43,30.12,29.96,2,1,11,0.00
2013-4-23,63.0,50.6,44.0,44.0,40.6,36.0,90,70,45,29.96,29.68,2,0,8,0.00
2013-4-24,74.0,55.8,42.0,58.0,48.3,40.0,96,79,48,29.69,29.34,3,1,13,0.00
2013-4-25,65.0,53.4,46.0,57.0,37.0,29.0,76,56,27,29.83,29.48,7,2,22,0.00
2013-4-26,46.0,40.8,38.0,38.0,36.2,35.0,91,84,71,29.89,29.85,0,0,3,0.00
2013-4-27,70.0,51.1,36.0,38.0,35.7,34.0,91,62,27,29.95,29.84,1,0,7,0.00
2013-4-28,68.0,58.6,47.0,42.0,36.3,-99.9,81,48,31,29.84,29.70,2,1,13,0.00
2013-4-29,56.0,54.3,51.0,54.0,49.3,39.0,96,84,52,29.72,29.62,2,0,9,0.51
2013-4-30,60.0,54.8,48.0,55.0,52.2,46.0,97,91,79,29.84,29.65,1,0,6,0.54
2013-5-1,71.0,54.1,40.0,48.0,42.3,38.0,94,70,32,29.98,29.84,2,0,7,0.30
2013-5-2,68.0,48.6,40.0,46.0,42.7,38.0,94,82,45,29.97,29.87,0,0,4,0.00
2013-5-3,63.0,48.9,43.0,45.0,42.6,40.0,94,80,51,29.90,29.86,1,0,11,0.00
2013-5-4,69.0,55.1,41.0,46.0,42.7,39.0,94,66,41,29.89,29.74,3,1,12,0.00
2013-5-5,63.0,52.5,44.0,46.0,42.1,38.0,87,69,49,29.80,29.71,2,1,13,0.00
2013-5-6,61.0,53.9,44.0,57.0,49.7,40.0,91,86,80,29.74,29.63,1,0,8,0.02
2013-5-7,63.0,59.1,56.0,62.0,57.8,55.0,97,95,91,29.65,29.52,1,0,10,1.03
2013-5-8,72.0,60.7,55.0,59.0,56.1,54.0,96,86,56,29.56,29.49,2,0,9,0.17
2013-5-9,74.0,61.2,52.0,63.0,55.3,51.0,97,83,56,29.55,29.48,3,1,11,0.03
2013-5-10,85.0,66.1,50.0,62.0,54.4,-99.9,100,73,38,29.57,29.43,4,1,14,1.16
2013-5-11,77.0,65.3,61.0,66.0,62.5,60.0,97,91,62,29.49,29.28,7,0,12,2.17
2013-5-12,62.0,56.2,45.0,61.0,40.7,-99.9,97,62,30,29.58,29.30,7,3,19,0.02
2013-5-13,57.0,47.2,36.0,35.0,30.2,24.0,93,56,29,29.70,29.57,6,2,19,0.00
2013-5-14,60.0,47.1,31.0,47.0,33.9,28.0,96,65,34,29.75,29.60,4,1,14,0.00
2013-5-15,84.0,62.9,52.0,65.0,53.9,44.0,92,74,51,29.63,29.25,2,0,9,0.03
2013-5-16,80.0,65.6,60.0,65.0,38.5,-99.9,95,73,57,29.47,29.30,6,1,22,0.01
2013-5-17,83.0,68.2,52.0,58.0,46.3,-99.9,97,58,29,29.71,29.47,3,1,8,0.01
2013-5-18,68.0,62.4,58.0,57.0,54.1,47.0,95,75,54,29.80,29.71,1,0,9,0.01
2013-5-19,69.0,62.8,58.0,65.0,61.1,57.0,97,94,85,29.77,29.66,1,0,5,0.07
2013-5-20,82.0,70.4,63.0,70.0,66.0,62.0,97,87,66,29.69,29.54,1,0,7,0.02
2013-5-21,86.0,75.7,65.0,72.0,68.6,64.0,97,80,62,29.55,29.44,1,0,8,0.00
2013-5-22,89.0,76.8,67.0,74.0,69.4,64.0,97,80,55,29.49,29.39,2,1,10,0.06
2013-5-23,80.0,69.7,63.0,70.0,65.9,62.0,97,88,66,29.46,29.32,2,0,11,1.37
2013-5-24,63.0,55.8,48.0,62.0,49.8,35.0,97,81,59,29.68,29.29,7,3,17,1.46
2013-5-25,65.0,56.4,44.0,40.0,36.6,33.0,66,49,34,29.68,29.61,7,4,20,0.07
2013-5-26,71.0,56.0,41.0,43.0,38.7,36.0,87,56,29,29.76,29.67,5,2,18,0.00
2013-5-27,73.0,58.1,41.0,51.0,43.5,39.0,96,63,34,29.83,29.73,2,0,6,0.00
2013-5-28,78.0,65.6,56.0,66.0,59.2,50.0,95,80,64,29.76,29.63,1,0,7,0.08
2013-5-29,89.0,76.5,64.0,72.0,66.4,63.0,96,73,48,29.68,29.62,4,1,14,0.02
2013-5-30,92.0,79.7,64.0,72.0,67.4,62.0,95,68,45,29.73,29.65,3,0,8,0.00
2013-5-31,91.0,77.2,63.0,70.0,65.3,62.0,97,70,39,29.71,29.58,2,0,8,0.00
2013-6-1,92.0,79.8,67.0,71.0,67.0,63.0,88,67,48,29.60,29.48,2,0,8,0.00
2013-6-2,79.0,73.3,68.0,67.0,62.6,-99.9,96,77,64,29.48,29.42,1,0,5,0.55
2013-6-3,80.0,71.3,64.0,69.0,66.1,61.0,97,85,57,29.49,29.38,4,1,10,0.95
2013-6-4,74.0,64.0,53.0,60.0,49.2,44.0,86,61,42,29.68,29.49,3,1,10,0.06
2013-6-5,79.0,66.1,50.0,57.0,52.5,49.0,96,66,38,29.74,29.61,2,0,7,0.00
2013-6-6,72.0,66.0,60.0,64.0,58.9,53.0,95,78,66,29.65,29.45,2,0,12,0.34
2013-6-7,70.0,66.4,64.0,68.0,65.1,63.0,96,94,93,29.44,29.16,4,1,11,2.36
2013-6-8,80.0,69.8,63.0,65.0,63.2,61.0,96,81,54,29.65,29.23,4,1,11,0.02
2013-6-9,82.0,70.7,59.0,69.0,63.5,58.0,97,80,55,29.76,29.65,1,0,5,0.00
2013-6-10,77.0,71.7,68.0,74.0,69.8,66.0,97,94,85,29.68,29.36,1,0,9,2.42
2013-6-11,80.0,72.5,66.0,69.0,66.4,63.0,100,83,63,29.40,29.33,6,2,14,0.92
2013-6-12,89.0,74.4,62.0,73.0,66.9,61.0,97,79,53,29.42,29.35,3,1,12,0.00
2013-6-13,86.0,73.4,68.0,71.0,67.6,58.0,95,83,58,29.40,29.03,6,2,17,1.10
2013-6-14,79.0,66.9,58.0,59.0,55.9,51.0,91,70,43,29.52,29.13,6,2,16,0.02
2013-6-15,82.0,68.1,54.0,61.0,56.9,53.0,97,71,41,29.63,29.52,4,1,12,0.01
2013-6-16,83.0,70.9,58.0,68.0,62.8,56.0,95,77,56,29.59,29.44,4,1,18,0.00
2013-6-17,87.0,76.6,65.0,72.0,67.2,62.0,91,74,56,29.51,29.44,3,1,10,0.00
2013-6-18,76.0,70.6,62.0,71.0,67.7,61.0,96,91,81,29.48,29.36,2,0,7,0.11
2013-6-19,80.0,68.5,59.0,63.0,60.8,57.0,97,79,51,29.71,29.44,1,0,7,0.03
2013-6-20,81.0,66.7,56.0,66.0,59.3,55.0,100,80,47,29.83,29.71,2,0,9,0.01
2013-6-22,90.0,83.2,76.0,70.0,67.1,64.0,69,59,46,29.81,29.70,2,1,9,0.00
2013-6-23,87.0,74.8,64.0,75.0,69.2,62.0,97,83,64,29.75,29.63,1,0,5,0.07
2013-6-24,91.0,77.1,68.0,77.0,69.6,66.0,100,80,52,29.68,29.58,2,0,7,0.07
2013-6-25,92.0,79.1,65.0,75.0,69.1,64.0,100,74,51,29.60,29.45,4,1,19,0.18
2013-6-26,89.0,74.4,65.0,75.0,69.4,64.0,100,86,56,29.50,29.37,5,1,12,1.10
2013-6-27,83.0,74.3,67.0,75.0,70.9,67.0,100,90,74,29.40,29.17,2,0,8,0.22
2013-6-28,87.0,76.4,69.0,73.0,70.1,68.0,97,82,59,29.20,29.05,3,1,8,0.06
2013-6-29,90.0,76.1,64.0,73.0,66.8,63.0,100,76,43,29.26,29.09,3,1,9,0.01
2013-6-30,88.0,76.6,70.0,75.0,72.6,69.0,97,88,59,29.41,29.26,2,0,10,0.33
2013-7-1,82.0,75.6,70.0,76.0,72.4,68.0,96,90,80,29.56,29.41,2,0,8,0.22
2013-7-2,83.0,75.8,72.0,75.0,72.4,70.0,96,90,74,29.73,29.55,2,0,10,0.09
2013-7-3,87.0,76.3,71.0,77.0,72.5,69.0,96,89,69,29.80,29.73,2,0,6,0.33
2013-7-4,90.0,80.9,73.0,76.0,73.6,71.0,97,80,58,29.82,29.73,2,0,10,0.04
2013-7-5,90.0,80.6,72.0,76.0,73.2,70.0,97,80,58,29.78,29.69,3,0,10,0.00
2013-7-6,93.0,80.0,71.0,77.0,73.0,70.0,97,81,54,29.75,29.63,2,1,11,0.00
2013-7-7,92.0,79.2,69.0,77.0,72.0,68.0,95,80,57,29.67,29.55,7,1,17,0.03
2013-7-8,86.0,74.5,68.0,73.0,67.7,-99.9,97,84,57,29.66,29.60,2,1,8,0.05
2013-7-9,84.0,75.9,69.0,75.0,71.2,67.0,96,85,72,29.67,29.57,2,0,5,0.01
2013-7-10,89.0,77.8,73.0,77.0,71.1,-99.9,96,84,66,29.59,29.42,2,0,7,0.01
2013-7-11,86.0,76.2,71.0,72.0,70.4,68.0,96,83,60,29.49,29.40,2,0,9,0.03
2013-7-12,74.0,69.1,66.0,70.0,66.5,64.0,95,91,75,29.57,29.47,2,0,9,0.72
2013-7-13,86.0,75.4,68.0,76.0,71.0,67.0,100,87,70,29.84,29.57,1,0,6,0.12
2013-7-14,91.0,83.2,72.0,77.0,74.6,71.0,96,76,62,29.86,29.83,1,0,6,0.06
2013-7-15,94.0,80.4,69.0,79.0,72.8,68.0,100,80,54,29.86,29.75,3,1,8,0.00
2013-7-16,93.0,82.1,74.0,75.0,72.2,69.0,96,76,48,29.77,29.73,2,0,7,0.00
2013-7-17,96.0,82.1,71.0,76.0,72.2,69.0,97,75,44,29.78,29.66,3,0,9,0.00
2013-7-18,97.0,84.3,72.0,81.0,75.4,71.0,97,77,52,29.68,29.57,2,0,7,0.00
2013-7-19,95.0,83.6,74.0,79.0,75.2,69.0,95,78,57,29.58,29.44,3,1,12,0.03
2013-7-20,92.0,79.4,71.0,77.0,71.3,-99.9,96,80,57,29.46,29.36,4,1,16,0.59
2013-7-21,89.0,76.9,69.0,76.0,71.6,68.0,100,85,59,29.50,29.44,2,0,8,0.60
2013-7-22,89.0,78.5,71.0,78.0,73.7,70.0,100,86,62,29.50,29.33,2,0,7,0.17
2013-7-23,84.0,76.0,70.0,75.0,70.9,68.0,97,85,63,29.34,29.21,4,1,14,0.47
2013-7-24,82.0,74.2,67.0,70.0,66.1,58.0,96,77,58,29.49,29.25,3,1,9,0.02
2013-7-25,79.0,67.5,59.0,64.0,57.6,52.0,91,71,56,29.59,29.49,2,1,8,0.00
2013-7-26,85.0,73.2,60.0,64.0,61.4,59.0,97,70,46,29.65,29.59,3,1,8,0.00
2013-7-27,85.0,71.9,63.0,71.0,66.7,61.0,97,85,61,29.62,29.49,4,0,11,0.59
2013-7-28,70.0,68.9,68.0,69.0,67.8,67.0,97,96,94,29.50,29.47,0,0,3,0.63
2013-8-2,84.0,75.0,68.0,70.0,67.7,65.0,93,79,62,29.52,29.47,0,0,1,0.00
2013-8-3,75.0,67.2,64.0,67.0,65.2,63.0,97,93,75,29.54,29.48,2,0,8,0.20
2013-8-4,79.0,68.8,59.0,63.0,59.2,54.0,100,75,44,29.58,29.46,5,1,13,0.01
2013-8-5,80.0,67.5,54.0,61.0,57.0,53.0,97,72,45,29.66,29.58,2,0,8,0.01
2013-8-6,71.0,67.1,63.0,67.0,63.9,59.0,96,89,80,29.65,29.57,1,0,5,0.11
2013-8-7,82.0,73.0,66.0,75.0,69.8,65.0,97,90,76,29.64,29.56,1,0,6,0.30
2013-8-8,86.0,75.3,69.0,76.0,72.2,67.0,100,91,68,29.62,29.54,4,0,12,1.71
2013-8-9,85.0,78.3,74.0,77.0,74.2,72.0,97,88,74,29.54,29.42,5,1,12,0.58
2013-8-10,84.0,75.1,68.0,72.0,68.3,62.0,95,81,51,29.64,29.50,2,0,7,0.51
2013-8-11,86.0,74.7,65.0,71.0,67.7,64.0,97,81,58,29.68,29.57,1,0,6,0.00
2013-8-12,86.0,75.5,67.0,72.0,69.1,66.0,97,82,55,29.59,29.49,2,0,8,0.00
2013-8-13,84.0,75.0,72.0,73.0,68.9,-99.9,96,84,64,29.49,29.30,3,1,9,0.13
2013-8-14,74.0,65.9,56.0,62.0,53.5,47.0,92,65,50,29.65,29.37,5,2,20,0.01
2013-8-15,77.0,59.9,50.0,57.0,42.3,-99.9,100,68,41,29.75,29.65,2,0,7,0.00
2013-8-16,79.0,64.9,51.0,61.0,51.6,-99.9,97,70,44,29.76,29.70,1,0,6,0.00
2013-8-17,81.0,66.7,52.0,61.0,56.7,51.0,100,74,46,29.83,29.76,2,0,8,0.00
2013-8-18,67.0,64.5,65.0,63.0,60.2,-99.9,91,89,80,29.80,29.73,0,0,1,0.02
2013-8-19,76.0,64.9,60.0,68.0,53.5,-99.9,97,86,73,29.75,29.63,1,0,5,0.02
2013-8-20,86.0,71.9,60.0,71.0,63.5,-99.9,100,80,50,29.72,29.65,2,0,7,0.00
2013-8-21,89.0,75.4,63.0,75.0,69.5,62.0,100,83,57,29.76,29.63,2,0,6,0.00
2013-8-22,85.0,77.0,69.0,73.0,70.0,67.0,95,80,59,29.65,29.49,3,1,9,0.00
2013-8-23,76.0,70.5,65.0,68.0,65.3,61.0,96,84,71,29.61,29.50,1,0,6,0.01
2013-10-18,52.0,52.0,52.0,46.0,45.6,45.0,80,79,77,29.44,29.42,0,0,4,0.04
2013-11-1,71.0,64.4,54.0,64.0,58.5,53.0,96,82,59,29.33,29.15,6,1,14,0.20
2013-11-2,54.0,54.0,54.0,53.0,53.0,53.0,96,96,96,29.21,29.21,0,0,0,0.18
2013-11-23,53.0,45.8,40.0,46.0,35.1,23.0,76,66,48,29.65,29.59,7,5,15,0.00
2013-12-5,66.0,62.6,57.0,61.0,57.9,54.0,92,85,73,29.93,29.85,2,1,11,0.00